sat.trackr.live / text

‹ back to catalog

STARLINK-33942

NORAD 63974 · 2025-099Y

PAYLOAD ACTIVE UNKNOWN

§ Identity

Operator
Country
US
Launch date
2025-05-13
Launch site
AFETR
Launch vehicle
Mass (kg)
RCS (m²)

Purposes: comms

External: N2YO · Heavens-Above · Gunter

§ Orbital elements

Epoch: 2026-09-20T22:18:29.397024Z

Period
94.27 min
Inclination
43.0022°
Eccentricity
0.0001404
Mean motion
15.27587641 rev/d
Perigee alt
482.1 km
Apogee alt
484.0 km
Semi-major
6,861.2 km
B*
5.1933e-4
RAAN
150.3172°
Arg perigee
281.1643°
Mean anomaly
78.9051°
Rev number
7,723

§ Raw data

STARLINK-339421 63974U 25099Y   26263.92950691  .00014059  00000+0  51933-3 0  99962 63974  43.0022 150.3172 0001404 281.1643  78.9051 15.27587641 77230

JSON: /api/v1/satellites/63974 · /tle

For live sub-satellite position, see the globe view (requires WebGL).

§ Visibility from observer

Set your observer location to see the next 7 days of passes ≥ 10°. The values pass through the URL so the page stays shareable.

No JS? Fill the form by hand. The geolocation button needs JavaScript.